Hourly Data Report for October 20, 2019

All times are specified in Local Standard Time (LST). Add 1 hour to adjust for Daylight Saving Time where and when it is observed.

EUREKA CLIMATE
NUNAVUT
Current Station Operator: ECCC - MSC

79°59'21.000" N
85°56'02.000" W
10.00 m
2401199
71613
NEK

Download Data

Hourly Data (October 2019)
Hourly Data Report for October 20, 2019
TIME Temp Definition
°C
Dew Point Definition
°C
Rel Hum Definition
%
Wind Dir Definition
10's deg

Wind Spd Definition
km/h
Visibility Definition
km
Stn Press Definition
kPa
Hmdx Definition


Wind Chill Definition


Weather Definition


00:00 -15.5 -16.8 89 14 8   102.58   -21 LegendNANA
01:00 -15.7 -16.8 91 18 11   102.60   -22 LegendNANA
02:00 -15.4 -16.5 92 14 4   102.65   -18 LegendNANA
03:00 -15.3 -16.4 91 6 4   102.68   -18 LegendNANA
04:00 -15.5 -16.7 91 11 3   102.72   -18 LegendNANA
05:00 -15.5 -16.7 91 16 5   102.75   -19 LegendNANA
06:00 -15.3 -16.4 91 13 1   102.79   -16 LegendNANA
07:00 -15.5 -16.6 91 20 7   102.83   -20 LegendNANA
08:00 -15.7 -16.9 91 4 3   102.87   -18 LegendNANA
09:00 -16.2 -17.5 90 1 7   102.92   -21 LegendNANA
10:00 -16.5 -17.8 90 4 4   102.95   -20 LegendNANA
11:00 -17.9 -19.4 88 2 10   102.99   -25 LegendNANA
12:00 -18.6 -20.2 87 2 8   102.99   -25 LegendNANA
13:00 -19.6 -21.2 87 3 8   103.02   -26 LegendNANA
14:00 -20.1 -21.8 87 2 11   103.03   -28 LegendNANA
15:00 -20.1 -21.8 86 2 11   103.06   -28 LegendNANA
16:00 -20.0 -21.8 85 2 12   103.08   -28 LegendNANA
17:00 -19.7 -21.3 87 2 12   103.09   -28 LegendNANA
18:00 -20.2 -21.4 90 1 15   103.13   -29 LegendNANA
19:00 -21.4 -23.1 86 2 14   103.14   -30 LegendNANA
20:00 -20.7 -22.3 87 1 12   103.15   -29 LegendNANA
21:00 -21.4 -23.2 85 2 12   103.14   -30 LegendNANA
22:00 -20.7 -22.4 86 2 10   103.14   -28 LegendNANA
23:00 -19.0 -20.5 88 3 5   103.15   -23 LegendNANA

Notes on Data Quality.

Legend

  • E = Estimated
  • M = Missing
  • NA = Not Available
Date modified: